Breckenridge, TX

10:41 PM CST on February 19, 2018 (GMT -0600)
Stephens County

Weather History for KBKD - March, 2013

Change the Weather History Date:

Friday, March 22, 2013

  Actual Average (KMWL) Record (KMWL)
Temperature  
Mean Temperature 58 °F -  
Max Temperature 70 °F 66 °F 88 °F (2011)
Min Temperature 45 °F 44 °F 28 °F (2002)
Degree Days  
Heating Degree Days 7    
Growing Degree Days 8 (Base 50)    
Moisture  
Dew Point 42 °F    
Average Humidity 67    
Maximum Humidity 78    
Minimum Humidity 54    
Precipitation  
Precipitation 0.00 in - - ()
Sea Level Pressure  
Sea Level Pressure 29.74 in    
Wind  
Wind Speed 13 mph (North)    
Max Wind Speed 21 mph    
Max Gust Speed 30 mph    
Visibility 10 miles    
Events      
Averages and records for this station are not official NWS values.
T = Trace of Precipitation, MM = Missing Value Source: NWS Daily Summary

Daily Weather History Graph

Daily Weather History Graph

Search for Another Location

Airport or City:

Trip Planner

Search our weather history database for the weather conditions in past years. The results will help you decide how hot, cold, wet, or windy it might be!

Date:

Astronomy

Mar. 22, 2013 Rise Set
Actual Time 7:36 AM CDT 7:48 PM CDT
Civil Twilight 7:11 AM CDT 8:13 PM CDT
Nautical Twilight 6:42 AM CDT 8:42 PM CDT
Astronomical Twilight 6:13 AM CDT 9:11 PM CDT
Moon 3:30 PM CDT (3/22) 4:23 AM CDT (3/22)
Length of Visible Light 13h 01m
Length of Day
12h 12m
Waxing Gibbous, 77% of the Moon is Illuminated
Mar 22
Waxing Gibbous
Mar 27
Full
Apr 2
Last Quarter
Apr 10
New
Apr 18
First Quarter

Hourly Weather History & Observations

Time (CDT) Temp. Windchill Dew Point Humidity Pressure Visibility Wind Dir Wind Speed Gust Speed Precip Events Conditions
12:15 AM 71.1 °F - 53.8 °F 54% 29.52 in 10.0 mi SSW 17.3 mph 23.0 mph N/A   Clear
12:35 AM 70.3 °F - 54.0 °F 56% 29.52 in 10.0 mi SSW 18.4 mph 23.0 mph N/A   Clear
12:55 AM 69.8 °F - 54.0 °F 57% 29.52 in 10.0 mi SSW 16.1 mph 21.9 mph N/A   Clear
1:15 AM 69.8 °F - 54.0 °F 57% 29.52 in 10.0 mi SSW 17.3 mph - N/A   Clear
1:35 AM 70.0 °F - 53.8 °F 56% 29.52 in 10.0 mi SW 19.6 mph 26.5 mph N/A   Clear
1:55 AM 69.8 °F - 53.6 °F 56% 29.52 in 10.0 mi SW 20.7 mph 28.8 mph N/A   Clear
2:15 AM 68.9 °F - 53.8 °F 58% 29.52 in 10.0 mi SW 17.3 mph 24.2 mph N/A   Clear
2:35 AM 68.0 °F - 53.8 °F 60% 29.53 in 10.0 mi SW 13.8 mph 20.7 mph N/A   Clear
2:55 AM 67.3 °F - 53.8 °F 62% 29.53 in 10.0 mi SW 11.5 mph 18.4 mph N/A   Clear
3:15 AM 66.4 °F - 53.8 °F 64% 29.54 in 10.0 mi SW 12.7 mph - N/A   Clear
3:35 AM 66.4 °F - 54.0 °F 64% 29.54 in 10.0 mi SW 9.2 mph 16.1 mph N/A   Clear
3:55 AM 65.7 °F - 54.0 °F 66% 29.54 in 10.0 mi SW 9.2 mph - N/A   Clear
4:15 AM 64.6 °F - 53.8 °F 68% 29.55 in 10.0 mi SW 6.9 mph - N/A   Clear
4:35 AM 63.9 °F - 53.2 °F 68% 29.56 in 10.0 mi West 8.1 mph - N/A   Clear
4:55 AM 63.5 °F - 50.5 °F 63% 29.59 in 10.0 mi WNW 12.7 mph - N/A   Clear
5:15 AM 56.1 °F - 45.7 °F 68% 29.64 in 10.0 mi NNW 20.7 mph 27.6 mph N/A   Clear
5:35 AM 51.1 °F - 41.2 °F 69% 29.66 in 10.0 mi NNW 19.6 mph 29.9 mph N/A   Clear
5:55 AM 49.3 °F - 40.1 °F 71% 29.67 in 10.0 mi North 19.6 mph 27.6 mph N/A   Clear
6:15 AM 47.7 °F - 39.2 °F 72% 29.70 in 10.0 mi North 13.8 mph 23.0 mph N/A   Scattered Clouds
6:35 AM 48.4 °F - 39.2 °F 71% 29.73 in 10.0 mi North 15.0 mph - N/A   Mostly Cloudy
6:55 AM 49.3 °F - 39.2 °F 68% 29.73 in 10.0 mi NNW 17.3 mph 23.0 mph N/A   Overcast
7:15 AM 49.1 °F - 38.7 °F 67% 29.75 in 10.0 mi North 15.0 mph 21.9 mph N/A   Overcast
7:35 AM 48.6 °F - 38.7 °F 69% 29.76 in 10.0 mi North 15.0 mph 20.7 mph N/A   Overcast
7:55 AM 48.2 °F - 38.8 °F 70% 29.78 in 10.0 mi North 15.0 mph - N/A   Overcast
8:15 AM 47.7 °F - 38.7 °F 71% 29.80 in 10.0 mi NNE 16.1 mph 19.6 mph N/A   Overcast
8:35 AM 47.7 °F - 37.8 °F 69% 29.80 in 10.0 mi North 10.4 mph 17.3 mph N/A   Overcast
8:55 AM 47.3 °F - 37.6 °F 69% 29.81 in 10.0 mi North 17.3 mph 23.0 mph N/A   Overcast
9:15 AM 46.4 °F 40.7 °F 38.1 °F 73% 29.80 in 10.0 mi North 12.7 mph 21.9 mph N/A   Overcast
9:35 AM 46.2 °F 41.7 °F 38.3 °F 74% 29.81 in 10.0 mi North 9.2 mph 18.4 mph N/A   Overcast
9:55 AM 46.8 °F - 38.5 °F 73% 29.81 in 10.0 mi North 10.4 mph - N/A   Overcast
10:15 AM 46.8 °F - 38.7 °F 73% 29.82 in 10.0 mi North 10.4 mph - N/A   Overcast
10:35 AM 46.4 °F 41.5 °F 38.8 °F 75% 29.82 in 10.0 mi North 10.4 mph - N/A   Overcast
10:55 AM 45.7 °F 41.0 °F 39.2 °F 78% 29.83 in 10.0 mi North 9.2 mph - N/A   Overcast
11:15 AM 45.9 °F 41.7 °F 38.8 °F 76% 29.85 in 10.0 mi NW 8.1 mph - N/A   Overcast
11:35 AM 46.0 °F 41.0 °F 38.5 °F 75% 29.85 in 10.0 mi NNW 10.4 mph - N/A   Overcast
11:55 AM 46.2 °F 40.8 °F 38.3 °F 74% 29.85 in 10.0 mi North 11.5 mph 16.1 mph N/A   Overcast
12:15 PM 46.8 °F - 38.5 °F 73% 29.84 in 10.0 mi NNW 11.5 mph - N/A   Overcast
12:35 PM 46.9 °F - 38.3 °F 72% 29.84 in 10.0 mi NNW 12.7 mph - N/A   Overcast
12:55 PM 47.3 °F - 38.5 °F 71% 29.84 in 10.0 mi North 10.4 mph - N/A   Overcast
1:15 PM 47.3 °F - 38.7 °F 72% 29.83 in 10.0 mi North 8.1 mph - N/A   Overcast
1:35 PM 48.6 °F - 39.0 °F 70% 29.83 in 10.0 mi NNW 8.1 mph - N/A   Overcast
1:55 PM 48.9 °F - 39.0 °F 69% 29.82 in 10.0 mi NNW 9.2 mph - N/A   Overcast
2:15 PM 49.3 °F - 39.2 °F 68% 29.82 in 10.0 mi North 11.5 mph - N/A   Overcast
2:35 PM 49.5 °F - 39.0 °F 67% 29.81 in 10.0 mi North 11.5 mph - N/A   Overcast
2:55 PM 50.0 °F - 39.2 °F 66% 29.81 in 10.0 mi North 10.4 mph 18.4 mph N/A   Overcast
3:15 PM 50.0 °F - 39.4 °F 67% 29.81 in 10.0 mi North 10.4 mph 17.3 mph N/A   Overcast
3:35 PM 50.0 °F - 39.2 °F 66% 29.81 in 10.0 mi North 10.4 mph 16.1 mph N/A   Overcast
3:55 PM 50.4 °F - 39.6 °F 66% 29.81 in 10.0 mi North 6.9 mph - N/A   Overcast
4:15 PM 50.2 °F - 39.6 °F 67% 29.81 in 10.0 mi NNE 9.2 mph - N/A   Overcast
4:35 PM 50.9 °F - 39.6 °F 65% 29.80 in 10.0 mi North 5.8 mph - N/A   Overcast
4:55 PM 51.1 °F - 39.4 °F 64% 29.81 in 10.0 mi NNW 5.8 mph - N/A   Overcast
5:15 PM 51.8 °F - 39.6 °F 63% 29.81 in 10.0 mi North 9.2 mph - N/A   Overcast
5:35 PM 51.8 °F - 39.6 °F 63% 29.81 in 10.0 mi North 9.2 mph - N/A   Overcast
5:55 PM 51.8 °F - 40.1 °F 64% 29.82 in 10.0 mi North 5.8 mph - N/A   Overcast
6:15 PM 52.0 °F - 39.9 °F 63% 29.80 in 10.0 mi NE 9.2 mph - N/A   Overcast
6:35 PM 52.3 °F - 40.1 °F 63% 29.79 in 10.0 mi NNE 6.9 mph - N/A   Overcast
6:55 PM 51.8 °F - 39.9 °F 64% 29.78 in 10.0 mi NE 10.4 mph 16.1 mph N/A   Overcast
7:15 PM 51.8 °F - 40.1 °F 64% 29.80 in 10.0 mi NE 6.9 mph - N/A   Overcast
7:35 PM 51.8 °F - 40.1 °F 64% 29.81 in 10.0 mi NNE 4.6 mph - N/A   Overcast
7:55 PM 51.8 °F - 40.1 °F 64% 29.80 in 10.0 mi NE 5.8 mph - N/A   Overcast
8:15 PM 51.6 °F - 40.1 °F 65% 29.81 in 10.0 mi Calm Calm - N/A   Overcast
8:35 PM 51.4 °F - 40.1 °F 65% 29.80 in 10.0 mi NE 6.9 mph - N/A   Overcast
8:55 PM 51.8 °F - 40.1 °F 64% 29.81 in 10.0 mi NNE 6.9 mph - N/A   Overcast
9:15 PM 51.4 °F - 40.1 °F 65% 29.81 in 10.0 mi NE 9.2 mph - N/A   Overcast
9:35 PM 51.4 °F - 40.1 °F 65% 29.81 in 10.0 mi NNE 6.9 mph - N/A   Overcast
9:55 PM 51.1 °F - 39.7 °F 65% 29.81 in 10.0 mi NE 6.9 mph - N/A   Overcast
10:15 PM 50.9 °F - 39.7 °F 66% 29.82 in 10.0 mi NE 6.9 mph - N/A   Overcast
10:35 PM 51.1 °F - 39.9 °F 66% 29.83 in 10.0 mi Calm Calm - N/A   Overcast
10:55 PM 50.9 °F - 39.7 °F 66% 29.82 in 10.0 mi ENE 9.2 mph - N/A   Overcast
11:15 PM 50.5 °F - 39.6 °F 66% 29.81 in 10.0 mi ENE 8.1 mph - N/A   Overcast
11:35 PM 50.9 °F - 39.6 °F 65% 29.83 in 10.0 mi East 6.9 mph - N/A   Overcast
11:55 PM 50.4 °F - 39.6 °F 66% 29.81 in 10.0 mi ENE 6.9 mph - N/A   Overcast